Flag for Cuba Weather past 2 weeks in Santiago de Cuba, Cuba

Now
82 °F

Scattered showers. Scattered clouds.


Feels Like: 86 °F
Forecast: 75 / 90 °F
Wind: 9 mph from Southeast

Location: Santiago De Cuba - Oriente

Current Time: May 24, 2015 at 4:26:48 PM

Latest Report: May 24, 2015 at 3:50 PM


Visibility: 5 mi

Pressure: N/A

Humidity: 66%

Dew point: 70 °F

Location of Santiago de CubaLocation

Historic Weather in Santiago de Cuba — Graph

°F

Santiago de Cuba temperature yesterday

Maximum temperature yesterday: 88 °F (at 1:52 PM)
Minimum temperature yesterday: 75 °F (at 1:51 AM)
Average temperature yesterday: 80 °F

Past Weeks' High & Low Weather Summary

 TemperatureHumidityPressure
High97 °F (May 13, 11:50 AM)94% (May 14, 8:50 PM)30.12 "Hg (May 14, 8:50 PM)
Low72 °F (May 11, 1:52 AM)38% (May 9, 5:51 PM)29.92 "Hg (May 20, 4:51 PM)
Average80 °F68%30.03 "Hg
* Reported May 9 2:50 PM — May 24 2:52 PM, Santiago de Cuba, Weather by CustomWeather, © 2015

Note: Actual official high and low records may vary slightly from our data, if they occured in-between our weather recording intervals... More about our weather records

Advertising

Santiago de Cuba weather history for previous 24 hours

 ConditionsComfort  
Time TempWeatherWind HumidityBarometerVisibility
2:52 PM
Sun, May 24
86 °FScattered showers. Scattered clouds.16 mph62%30.01 "Hg6 mi
1:50 PM88 °FScattered showers. Scattered clouds.14 mph62%30.04 "Hg6 mi
12:50 PM88 °FScattered clouds.15 mph55%30.04 "Hg6 mi
11:50 AM88 °FScattered clouds.13 mph55%30.07 "HgN/A
10:50 AM86 °FScattered clouds.15 mph62%30.07 "HgN/A
9:51 AM84 °FPassing clouds.6 mph62%30.07 "HgN/A
8:51 AM84 °FPassing clouds.3 mph58%30.07 "HgN/A
7:51 AM81 °FPassing clouds.6 mph66%30.07 "Hg6 mi
6:53 AM75 °FPassing clouds.5 mph78%30.04 "Hg6 mi
5:50 AM75 °FPassing clouds.7 mph78%30.04 "Hg6 mi
4:51 AM75 °FPassing clouds.7 mph78%30.01 "Hg6 mi
3:50 AM77 °FPassing clouds.10 mph74%30.01 "Hg6 mi
2:50 AM77 °FPassing clouds.8 mph79%30.04 "Hg6 mi
1:50 AM77 °FPassing clouds.6 mph79%30.04 "Hg6 mi
12:50 AM77 °FPassing clouds.8 mph79%30.07 "Hg6 mi
11:50 PM
Sat, May 23
77 °FPassing clouds.8 mph74%30.09 "Hg6 mi
10:52 PM77 °FPassing clouds.6 mph79%30.09 "Hg6 mi
9:52 PM79 °FPassing clouds.5 mph74%30.09 "Hg6 mi
8:54 PM79 °FPartly cloudy.7 mph74%30.07 "Hg6 mi
7:51 PM79 °FBroken clouds.5 mph74%30.07 "Hg5 mi
6:52 PM79 °FThundershowers. Broken clouds.5 mph74%N/A5 mi
5:51 PM84 °FScattered showers. Scattered clouds.7 mph70%30.04 "Hg6 mi
4:51 PM86 °FScattered clouds.10 mph66%30.04 "Hg6 mi
Weather by CustomWeather, © 2015

See weather overviewHow to use our weather pages